Regional Weather Roundup
Issued by NWS Newport/Morehead, NC

Home | Current Version | Previous Version | Text Only | Print | Product List | Glossary On
Versions: 1 2 3 4 5 6 7 8 9 10 11 12 13 14 15 16 17 18 19 20 21 22 23 24 25 26 27 28 29 30 31 32 33 34 35 36 37 38 39 40 41 42 43 44 45 46 47 48 49 50
000
ASUS42 KMHX 121122
RWRMHX
WEATHER ROUNDUP FOR EASTERN NORTH CAROLINA
NATIONAL WEATHER SERVICE NEWPORT/MOREHEAD CITY NC
700 AM EDT SAT JUL 12 2014

NOTE: "FAIR" INDICATES FEW OR NO CLOUDS BELOW 12,000 FEET
WITH NO SIGNIFICANT WEATHER AND/OR OBSTRUCTIONS TO VISIBILITY

NCZ015>017-031-032-045>047-102-103-121200-
NORTH COAST

CITY           SKY/WX    TMP DP  RH WIND       PRES   REMARKS
EDENTON        FOG       68  67  99 CALM      30.21S VSB 3/4
ELIZABETH CITY SUNNY     71  70  96 N8        30.20F
KITTY HAWK     SUNNY     72  71  96 N3        30.19S
MANTEO         NOT AVBL

$$

NCZ045>047-081-094-103-104-121200-
CENTRAL COAST

CITY           SKY/WX    TMP DP  RH WIND       PRES   REMARKS
FRISCO         MOSUNNY   76  73  91 NE7       30.18F
SWANQUARTER      N/A     73 N/A N/A NE2       30.18S

$$

NCZ095-097-098-100-101-121200-
SOUTHERN COAST

CITY           SKY/WX    TMP DP  RH WIND       PRES   REMARKS
BEAUFORT       MOCLDY    76  73  91 NW5       30.19S
CEDAR ISLAND     N/A     75 N/A N/A VRB7G13   30.24S
JACKSONVILLE   MOCLDY    73  72  96 CALM      30.19S FOG
NEWPORT        NOT AVBL
PINEY ISLAND   LGT RAIN  75  75 100 NE6       30.20R
WILMINGTON     PTCLDY    73  68  84 N3        30.19F FOG


$$

NCZ011>013-027>030-043-044-078>080-089-090>093-098-121200-
COASTAL PLAIN

CITY           SKY/WX    TMP DP  RH WIND       PRES   REMARKS
AHOSKIE        CLOUDY    65  64  96 CALM      30.22S VSB<1/4
CLINTON        FOG       72  72 100 CALM      30.21S VSB<1/4
ELIZABETHTOWN  FOG       71  71 100 CALM      30.20S VSB 1/2
GOLDSBORO      CLEAR     71  71  99 E2        30.19S
GREENVILLE     CLOUDY    70  70 100 CALM      30.22S FOG
HAVELOCK       PTCLDY    74  71  91 NW6       30.20S
KENANSVILLE    CLOUDY    71  70  96 CALM      30.22S FOG
KINSTON        FOG       72  72 100 CALM      30.21F VSB<1/4
NEW BERN       CLOUDY    76  72  87 CALM      30.21S FOG
RICHLANDS      CLOUDY    72  68  88 CALM      30.20F VSB 1
ROANOKE RAPIDS NOT AVBL
ROCKY MOUNT    FOG       70  69  97 CALM      30.22S VSB 1/4
WASHINGTON     PTCLDY   N/A N/A N/A CALM      30.21S
WHITEVILLE     MOCLDY    72  71  96 CALM      30.19S FOG

$$

AMZ130-135-150-152-154-156-158-170-250-252-270-ANZ085-086-088-633-658-670-121200-
MARINE OBSERVATIONS

STATION/POSITION TIME  TEMP    WIND        PRES    WAVE   SWELL
                       AIR SEA DIR/SP/G            HT/PER HT/PER
                 (UTC) (F)     (DEG/KT/KT) (MB)    (FT/S) (FT/S)
CHESAPEAKE LIGHT NOT AVBL
BUOY 44014       1100   74 76   20/  8/ 10 1022.1    1/ 8   2/ 8
DUCK             1100   72 69   10/  8/  9 1021.8
2E DUCK          1100                        N/A     2/ 8
OREGON INLET     1100   73 76  360/  5/  8 1022.3
BUOY 44095       1100      74                N/A     2/ 6
HATTERAS CG      1100   78 81   40/  5/ 10 1022.5
DIAMOND BUOY     1100          VRB  4/  6  1022.0    2/ 9   2/ 9
17S OCRACOKE INL NOT AVBL
CAPE LOOKOUT     1100   78     320/  5/  6 1022.3
BEAUFORT LAB     1100   76 81  330/  3/  5 1022.0
30 SE NEW RIVER  1100   79 81  230/  6/  8 1022.4    2/ 8   2/ 8
5 SE WRIGHTSVILL 1100   74 81   10/  6/  8 1023.0
FRYING PAN BUOY  NOT AVBL
BUOY 41001       NOT AVBL
BUOY 41002       1005   81 82   CALM  /  4 1022.5    3/ 7
BUOY 41004       1100   79 82  170/ 12/ 14 1020.8    2/ 8   2/ 8

$$


USA.gov is the U.S. government's official web portal to all federal, state and local government web resources and services.